When you browse on this site, cookies collect data to enhance your experience and personalize the content and advertising you see.
Visit our Privacy Policy to learn more. By continuing to use the site, you agree to this use of cookies and data.
  • In Romania
  • List of Countries
  • For 7 days
  • Water Temperature
  • Satellite Maps
  • Weather Map
  • Weather Widgets
  • user-avatar
    Login

    Hourly Weather Gulaothi

    Today, 16 February, Saturday

    Time Temperature Precipitation Wind Pressure Humidity
    00:00 +14°C° 0 mm 2 mps 743 mmHg 92%
    01:00 +14°C° 0 mm 2 mps 743 mmHg 92%
    02:00 +14°C° 0 mm 2 mps 743 mmHg 93%
    03:00 +13°C° 0 mm 2 mps 743 mmHg 93%
    04:00 +13°C° 0 mm 2 mps 743 mmHg 94%
    05:00 +13°C° 0 mm 2 mps 743 mmHg 94%
    06:00 +13°C° 0 mm 2 mps 743 mmHg 92%
    07:00 +14°C° 0 mm 2 mps 743 mmHg 90%
    08:00 +15°C° 0 mm 2 mps 744 mmHg 87%
    09:00 +16°C° 0 mm 2 mps 744 mmHg 81%
    10:00 +18°C° 0 mm 2 mps 744 mmHg 74%
    11:00 +20°C° 0 mm 2 mps 745 mmHg 67%
    12:00 +21°C° 0.1 mm 2 mps 744 mmHg 65%
    13:00 +21°C° 0.1 mm 2 mps 743 mmHg 63%
    14:00 +23°C° 0.1 mm 2 mps 743 mmHg 61%
    15:00 +21°C° 0 mm 2 mps 742 mmHg 64%
    16:00 +21°C° 0 mm 2 mps 742 mmHg 68%
    17:00 +20°C° 0 mm 2 mps 742 mmHg 71%
    18:00 +19°C° 0 mm 2 mps 742 mmHg 74%
    19:00 +18°C° 0 mm 2 mps 742 mmHg 78%
    20:00 +16°C° 0 mm 3 mps 742 mmHg 81%
    21:00 +16°C° 0 mm 3 mps 742 mmHg 83%
    22:00 +15°C° 0 mm 2 mps 742 mmHg 85%
    23:00 +15°C° 0 mm 2 mps 742 mmHg 86%

    Tomorrow, 17 February, Sunday

    Time Temperature Precipitation Wind Pressure Humidity
    00:00 +14°C° 0 mm 3 mps 742 mmHg 88%
    01:00 +13°C° 0 mm 3 mps 742 mmHg 89%
    02:00 +13°C° 0 mm 3 mps 741 mmHg 90%
    03:00 +12°C° 0 mm 3 mps 741 mmHg 91%
    04:00 +12°C° 0 mm 3 mps 741 mmHg 91%
    05:00 +12°C° 0 mm 3 mps 741 mmHg 92%
    06:00 +12°C° 0 mm 3 mps 741 mmHg 88%
    07:00 +13°C° 0 mm 4 mps 742 mmHg 84%
    08:00 +14°C° 0 mm 4 mps 742 mmHg 80%
    09:00 +17°C° 0 mm 4 mps 742 mmHg 73%
    10:00 +19°C° 0 mm 4 mps 742 mmHg 65%
    11:00 +21°C° 0 mm 5 mps 743 mmHg 57%
    12:00 +21°C° 0 mm 5 mps 742 mmHg 55%
    13:00 +22°C° 0 mm 4 mps 741 mmHg 52%
    14:00 +23°C° 0 mm 4 mps 740 mmHg 49%
    15:00 +22°C° 0 mm 4 mps 740 mmHg 54%
    16:00 +21°C° 0 mm 3 mps 739 mmHg 58%
    17:00 +20°C° 0 mm 3 mps 739 mmHg 62%
    18:00 +19°C° 0 mm 2 mps 739 mmHg 64%
    19:00 +17°C° 0 mm 2 mps 739 mmHg 65%
    20:00 +16°C° 0 mm 2 mps 739 mmHg 66%
    21:00 +15°C° 0 mm 2 mps 739 mmHg 67%
    22:00 +15°C° 0 mm 2 mps 740 mmHg 68%
    23:00 +14°C° 0 mm 2 mps 740 mmHg 69%

    Day after tomorrow, 18 February, Monday

    Time Temperature Precipitation Wind Pressure Humidity
    00:00 +14°C° 0 mm 2 mps 740 mmHg 68%
    01:00 +14°C° 0 mm 2 mps 739 mmHg 67%
    02:00 +13°C° 0 mm 2 mps 739 mmHg 66%
    03:00 +13°C° 0 mm 2 mps 739 mmHg 65%
    04:00 +13°C° 0 mm 2 mps 739 mmHg 64%
    05:00 +13°C° 0 mm 2 mps 739 mmHg 63%
    06:00 +14°C° 0 mm 2 mps 739 mmHg 61%
    07:00 +15°C° 0 mm 1 mps 740 mmHg 60%
    08:00 +16°C° 0 mm 1 mps 740 mmHg 58%
    09:00 +19°C° 0 mm 1 mps 740 mmHg 52%
    10:00 +20°C° 0 mm 2 mps 740 mmHg 47%
    11:00 +23°C° 0 mm 2 mps 741 mmHg 41%
    12:00 +24°C° 0 mm 2 mps 740 mmHg 41%
    13:00 +25°C° 0 mm 3 mps 739 mmHg 40%
    14:00 +25°C° 0 mm 3 mps 738 mmHg 40%
    15:00 +24°C° 0 mm 3 mps 738 mmHg 45%
    16:00 +23°C° 0 mm 2 mps 738 mmHg 50%
    17:00 +21°C° 0 mm 1 mps 738 mmHg 55%
    18:00 +20°C° 0.1 mm 1 mps 738 mmHg 56%
    19:00 +19°C° 0.1 mm 1 mps 738 mmHg 57%
    20:00 +18°C° 0.1 mm 1 mps 739 mmHg 59%
    21:00 +17°C° 0 mm 2 mps 739 mmHg 62%
    22:00 +16°C° 0 mm 2 mps 739 mmHg 65%
    23:00 +16°C° 0 mm 3 mps 739 mmHg 68%

    19 February, Tuesday

    Time Temperature Precipitation Wind Pressure Humidity
    00:00 +16°C° 0.1 mm 3 mps 739 mmHg 70%
    01:00 +16°C° 0.1 mm 3 mps 739 mmHg 72%
    02:00 +14°C° 0.1 mm 3 mps 739 mmHg 74%
    03:00 +14°C° 0 mm 3 mps 739 mmHg 77%
    04:00 +13°C° 0 mm 3 mps 739 mmHg 80%
    05:00 +12°C° 0 mm 3 mps 739 mmHg 83%
    06:00 +13°C° 0.2 mm 3 mps 740 mmHg 84%
    07:00 +13°C° 0.2 mm 3 mps 741 mmHg 85%
    08:00 +14°C° 0.2 mm 3 mps 742 mmHg 86%
    09:00 +17°C° 0 mm 3 mps 742 mmHg 79%
    10:00 +19°C° 0 mm 4 mps 743 mmHg 71%
    11:00 +21°C° 0 mm 5 mps 743 mmHg 64%
    12:00 +22°C° 0 mm 4 mps 742 mmHg 60%
    13:00 +23°C° 0 mm 4 mps 742 mmHg 56%
    14:00 +25°C° 0 mm 3 mps 741 mmHg 52%
    15:00 +25°C° 0 mm 3 mps 741 mmHg 57%
    16:00 +24°C° 0 mm 2 mps 741 mmHg 62%
    17:00 +23°C° 0 mm 2 mps 741 mmHg 67%
    18:00 +21°C° 0 mm 2 mps 741 mmHg 70%
    19:00 +19°C° 0 mm 2 mps 741 mmHg 73%
    20:00 +18°C° 0 mm 2 mps 742 mmHg 76%
    21:00 +18°C° 0 mm 3 mps 742 mmHg 73%
    22:00 +18°C° 0 mm 3 mps 742 mmHg 70%
    23:00 +19°C° 0 mm 4 mps 742 mmHg 67%

    20 February, Wednesday

    Time Temperature Precipitation Wind Pressure Humidity
    00:00 +19°C° 0 mm 4 mps 742 mmHg 66%
    01:00 +19°C° 0 mm 3 mps 742 mmHg 64%
    02:00 +18°C° 0 mm 3 mps 742 mmHg 63%
    03:00 +18°C° 0.1 mm 3 mps 742 mmHg 65%
    04:00 +17°C° 0.1 mm 2 mps 742 mmHg 67%
    05:00 +17°C° 0.1 mm 2 mps 742 mmHg 69%
    06:00 +17°C° 0 mm 2 mps 743 mmHg 69%
    07:00 +17°C° 0 mm 2 mps 743 mmHg 69%
    08:00 +18°C° 0 mm 2 mps 744 mmHg 69%
    09:00 +20°C° 0 mm 3 mps 744 mmHg 64%
    10:00 +22°C° 0 mm 3 mps 744 mmHg 59%
    11:00 +25°C° 0 mm 4 mps 744 mmHg 54%
    12:00 +26°C° 0 mm 3 mps 744 mmHg 52%
    13:00 +26°C° 0 mm 3 mps 743 mmHg 51%
    14:00 +27°C° 0 mm 3 mps 743 mmHg 50%
    15:00 +26°C° 0 mm 3 mps 743 mmHg 57%
    16:00 +24°C° 0 mm 3 mps 743 mmHg 63%
    17:00 +22°C° 0 mm 3 mps 743 mmHg 69%
    18:00 +21°C° 0 mm 2 mps 743 mmHg 68%
    19:00 +22°C° 0 mm 1 mps 744 mmHg 67%
    20:00 +19°C° 0 mm 0 mps 744 mmHg 66%
    21:00 +21°C° 0 mm 1 mps 744 mmHg 69%
    22:00 +20°C° 0 mm 1 mps 744 mmHg 71%
    23:00 +19°C° 0 mm 2 mps 744 mmHg 73%

    21 February, Thursday

    Time Temperature Precipitation Wind Pressure Humidity
    00:00 +18°C° 0 mm 2 mps 743 mmHg 74%
    01:00 +18°C° 0 mm 3 mps 743 mmHg 76%
    02:00 +17°C° 0 mm 3 mps 742 mmHg 77%
    03:00 +17°C° 0 mm 3 mps 742 mmHg 73%
    04:00 +17°C° 0 mm 3 mps 742 mmHg 70%
    05:00 +17°C° 0 mm 2 mps 742 mmHg 67%
    06:00 +17°C° 0 mm 2 mps 743 mmHg 67%
    07:00 +17°C° 0 mm 2 mps 744 mmHg 67%
    08:00 +18°C° 0 mm 2 mps 745 mmHg 67%
    09:00 +20°C° 0 mm 2 mps 746 mmHg 61%
    10:00 +22°C° 0 mm 3 mps 746 mmHg 55%
    11:00 +24°C° 0 mm 3 mps 746 mmHg 49%
    12:00 +25°C° 0 mm 3 mps 745 mmHg 48%
    13:00 +25°C° 0 mm 4 mps 745 mmHg 47%
    14:00 +25°C° 0 mm 4 mps 744 mmHg 45%
    15:00 +25°C° 0 mm 4 mps 744 mmHg 52%
    16:00 +24°C° 0 mm 3 mps 743 mmHg 58%
    17:00 +22°C° 0 mm 3 mps 743 mmHg 64%
    18:00 +21°C° 0 mm 3 mps 743 mmHg 64%
    19:00 +20°C° 0 mm 3 mps 744 mmHg 64%
    20:00 +19°C° 0 mm 3 mps 744 mmHg 65%
    21:00 +19°C° 0 mm 3 mps 744 mmHg 64%
    22:00 +19°C° 0 mm 3 mps 744 mmHg 63%
    23:00 +19°C° 0 mm 3 mps 743 mmHg 62%
    Show more